Rogers City, MI

3:37 PM EDT on July 21, 2017 (GMT -0400)
Presque Isle County

Weather History for KPZQ - May, 2014

Change the Weather History Date:

Sunday, May 11, 2014

  Actual Average (KAPN) Record (KAPN)
Temperature  
Mean Temperature 50 °F -  
Max Temperature 64 °F 64 °F 86 °F (1982)
Min Temperature 36 °F 38 °F 21 °F (1949)
Degree Days  
Heating Degree Days 15    
Moisture  
Dew Point 40 °F    
Average Humidity 69    
Maximum Humidity 95    
Minimum Humidity 47    
Precipitation  
Precipitation 0.00 in - - ()
Sea Level Pressure  
Sea Level Pressure 30.00 in    
Wind  
Wind Speed 4 mph (SW)    
Max Wind Speed 10 mph    
Max Gust Speed -    
Visibility 10 miles    
Events Rain    
Averages and records for this station are not official NWS values.
T = Trace of Precipitation, MM = Missing Value Source: NWS Daily Summary

Daily Weather History Graph

Daily Weather History Graph

Search for Another Location

Airport or City:

Trip Planner

Search our weather history database for the weather conditions in past years. The results will help you decide how hot, cold, wet, or windy it might be!

Date:

Astronomy

May. 11, 2014 Rise Set
Actual Time 6:09 AM EDT 8:54 PM EDT
Civil Twilight 5:35 AM EDT 9:28 PM EDT
Nautical Twilight 4:52 AM EDT 10:11 PM EDT
Astronomical Twilight 4:02 AM EDT 11:02 PM EDT
Moon 5:40 PM EDT (5/11) 4:24 AM EDT (5/11)
Length of Visible Light 15h 52m
Length of Day
14h 44m
Waxing Gibbous, 89% of the Moon is Illuminated
May 11
Waxing Gibbous
May 14
Full
May 21
Last Quarter
May 28
New
Jun 5
First Quarter

Hourly Weather History & Observations

Time (EDT) Temp. Windchill Dew Point Humidity Pressure Visibility Wind Dir Wind Speed Gust Speed Precip Events Conditions
12:15 AM 39.0 °F - 35.8 °F 88% 29.94 in 10.0 mi Calm Calm - N/A   Clear
12:34 AM 37.2 °F - 34.7 °F 91% 29.95 in 10.0 mi Calm Calm - N/A   Clear
12:55 AM 39.4 °F - 36.9 °F 91% 29.96 in 10.0 mi Calm Calm - N/A   Clear
1:15 AM 38.3 °F - 36.9 °F 95% 29.97 in 10.0 mi Calm Calm - N/A   Clear
1:35 AM 38.3 °F - 36.3 °F 93% 29.97 in 10.0 mi Calm Calm - N/A   Clear
1:55 AM 36.9 °F - 35.1 °F 93% 29.98 in 10.0 mi Calm Calm - N/A   Clear
2:15 AM 41.4 °F 39.4 °F 35.8 °F 81% 29.98 in 10.0 mi SW 3.5 mph - N/A   Clear
2:35 AM 43.3 °F 41.7 °F 34.9 °F 72% 29.98 in 10.0 mi SW 3.5 mph - N/A   Clear
2:55 AM 43.5 °F 40.9 °F 34.2 °F 70% 29.98 in 10.0 mi SSW 4.6 mph - N/A   Clear
3:14 AM 44.6 °F 42.2 °F 34.3 °F 67% 29.97 in 10.0 mi SSW 4.6 mph - N/A   Clear
3:35 AM 44.2 °F 41.8 °F 33.8 °F 67% 29.97 in 10.0 mi SSW 4.6 mph - N/A   Clear
3:54 AM 45.5 °F 41.8 °F 34.2 °F 65% 29.97 in 10.0 mi SW 6.9 mph - N/A   Clear
4:14 AM 46.2 °F 41.7 °F 34.9 °F 65% 29.97 in 10.0 mi SW 9.2 mph - N/A   Clear
4:35 AM 46.4 °F 43.5 °F 34.9 °F 64% 29.97 in 10.0 mi SW 5.8 mph - N/A   Clear
4:55 AM 45.9 °F 42.9 °F 34.7 °F 65% 29.98 in 10.0 mi SW 5.8 mph - N/A   Clear
5:14 AM 46.0 °F 42.5 °F 34.9 °F 65% 29.98 in 10.0 mi SSW 6.9 mph - N/A   Clear
5:35 AM 47.3 °F - 35.1 °F 62% 29.98 in 10.0 mi SSW 9.2 mph - N/A   Clear
5:55 AM 47.8 °F - 34.7 °F 60% 29.98 in 10.0 mi SSW 9.2 mph - N/A   Clear
6:15 AM 47.5 °F - 34.7 °F 61% 29.98 in 10.0 mi SSW 9.2 mph - N/A   Clear
6:35 AM 48.2 °F - 34.7 °F 60% 29.99 in 10.0 mi SW 9.2 mph - N/A   Clear
6:55 AM 48.7 °F - 34.9 °F 59% 29.99 in 10.0 mi SW 9.2 mph - N/A   Clear
7:15 AM 49.8 °F - 35.6 °F 58% 29.99 in 10.0 mi SW 10.4 mph - N/A   Clear
7:35 AM 51.4 °F - 36.3 °F 56% 29.99 in 10.0 mi SW 9.2 mph - N/A   Clear
7:55 AM 53.4 °F - 37.0 °F 54% 30.00 in 10.0 mi SW 9.2 mph - N/A   Clear
8:15 AM 57.2 °F - 37.0 °F 47% 30.01 in 10.0 mi West 4.6 mph - N/A   Clear
8:35 AM 56.3 °F - 40.3 °F 55% 30.01 in 10.0 mi North 3.5 mph - N/A   Clear
8:55 AM 53.8 °F - 40.6 °F 61% 30.01 in 10.0 mi Calm Calm - N/A   Scattered Clouds
9:15 AM 48.0 °F - 38.5 °F 70% 30.02 in 10.0 mi North 3.5 mph - N/A   Overcast
9:34 AM 46.8 °F - 38.1 °F 72% 30.03 in 10.0 mi North 6.9 mph - N/A   Overcast
9:55 AM 46.8 °F - 38.3 °F 72% 30.04 in 10.0 mi North 4.6 mph - N/A   Overcast
10:15 AM 45.3 °F - 37.6 °F 74% 30.05 in 10.0 mi Calm Calm - N/A   Overcast
10:35 AM 49.6 °F - 40.8 °F 72% 30.04 in 10.0 mi WSW 6.9 mph - N/A Rain Light Rain
10:55 AM 55.9 °F - 45.3 °F 68% 30.03 in 10.0 mi SW 8.1 mph - N/A Rain Light Rain
11:15 AM 56.7 °F - 45.3 °F 66% 30.03 in 10.0 mi SW 8.1 mph - N/A   Overcast
11:35 AM 59.5 °F - 46.4 °F 62% 30.02 in 10.0 mi WSW 5.8 mph - N/A   Overcast
11:55 AM 64.6 °F - 46.2 °F 51% 30.02 in 10.0 mi WSW 4.6 mph - N/A   Mostly Cloudy
12:14 PM 63.0 °F - 46.6 °F 55% 30.03 in 10.0 mi WSW 6.9 mph - N/A   Overcast
12:35 PM 55.0 °F - 43.7 °F 66% 30.04 in 10.0 mi North 9.2 mph - N/A   Overcast
12:55 PM 56.5 °F - 44.6 °F 64% 30.04 in 10.0 mi Calm Calm - N/A   Overcast
1:14 PM 57.4 °F - 44.6 °F 62% 30.03 in 10.0 mi Calm Calm - N/A   Scattered Clouds
1:35 PM 61.7 °F - 46.6 °F 58% 30.02 in 7.0 mi NE 4.6 mph - N/A   Clear
1:55 PM 57.9 °F - 44.4 °F 61% 30.02 in 10.0 mi NE 6.9 mph - N/A   Clear
2:15 PM 54.5 °F - 43.2 °F 66% 30.02 in 10.0 mi NNE 5.8 mph - N/A   Clear
2:35 PM 53.6 °F - 42.1 °F 65% 30.03 in 10.0 mi NE 5.8 mph - N/A   Scattered Clouds
2:55 PM 53.4 °F - 42.3 °F 66% 30.03 in 10.0 mi NE 4.6 mph - N/A   Scattered Clouds
3:15 PM 55.9 °F - 43.5 °F 63% 30.02 in 10.0 mi ENE 6.9 mph - N/A   Scattered Clouds
3:35 PM 58.1 °F - 43.0 °F 57% 30.01 in 10.0 mi ENE 8.1 mph - N/A   Mostly Cloudy
3:54 PM 59.7 °F - 43.5 °F 55% 30.01 in 10.0 mi ENE 6.9 mph - N/A   Scattered Clouds
4:15 PM 58.5 °F - 43.3 °F 57% 30.01 in 10.0 mi ENE 8.1 mph - N/A   Scattered Clouds
4:35 PM 49.6 °F - 40.5 °F 71% 30.02 in 10.0 mi NNE 6.9 mph - N/A   Clear
4:54 PM 49.6 °F - 41.0 °F 72% 30.02 in 10.0 mi NE 4.6 mph - N/A   Scattered Clouds
5:15 PM 53.6 °F - 41.0 °F 62% 30.02 in 10.0 mi ENE 5.8 mph - N/A   Mostly Cloudy
5:35 PM 56.5 °F - 41.0 °F 56% 30.01 in 10.0 mi ENE 8.1 mph - N/A   Mostly Cloudy
5:54 PM 57.6 °F - 41.0 °F 54% 30.01 in 10.0 mi ENE 4.6 mph - N/A   Scattered Clouds
6:15 PM 52.9 °F - 41.5 °F 65% 30.02 in 10.0 mi Calm Calm - N/A   Scattered Clouds
6:35 PM 50.5 °F - 41.0 °F 70% 30.01 in 10.0 mi Calm Calm - N/A   Scattered Clouds
6:55 PM 50.9 °F - 41.5 °F 70% 30.00 in 10.0 mi Calm Calm - N/A   Scattered Clouds
7:15 PM 48.0 °F - 39.7 °F 73% 30.00 in 10.0 mi NE 4.6 mph - N/A   Scattered Clouds
7:35 PM 47.3 °F - 39.2 °F 73% 30.00 in 10.0 mi Calm Calm - N/A   Scattered Clouds
7:55 PM 46.4 °F - 39.6 °F 77% 30.00 in 10.0 mi Calm Calm - N/A   Mostly Cloudy
8:15 PM 48.4 °F - 41.0 °F 76% 30.00 in 10.0 mi Calm Calm - N/A   Overcast
8:34 PM 48.7 °F - 41.9 °F 77% 30.00 in 10.0 mi Calm Calm - N/A   Overcast
8:55 PM 53.1 °F - 41.7 °F 65% 30.00 in 10.0 mi ESE 4.6 mph - N/A   Mostly Cloudy
9:15 PM 49.1 °F - 42.1 °F 77% 30.00 in 10.0 mi Calm Calm - N/A   Scattered Clouds
9:34 PM 44.6 °F - 39.7 °F 83% 30.01 in 10.0 mi Calm Calm - N/A   Scattered Clouds
9:55 PM 44.8 °F - 40.1 °F 84% 30.01 in 10.0 mi Calm Calm - N/A   Scattered Clouds
10:15 PM 44.6 °F - 40.8 °F 87% 30.01 in 10.0 mi Calm Calm - N/A   Scattered Clouds
10:35 PM 44.6 °F - 41.0 °F 87% 30.02 in 10.0 mi Calm Calm - N/A   Scattered Clouds
10:55 PM 45.5 °F - 41.9 °F 87% 30.02 in 10.0 mi Calm Calm - N/A   Mostly Cloudy
11:15 PM 46.4 °F - 42.6 °F 87% 30.03 in 10.0 mi Calm Calm - N/A   Overcast
11:35 PM 45.7 °F - 41.7 °F 86% 30.03 in 10.0 mi Calm Calm - N/A   Mostly Cloudy
11:55 PM 45.0 °F - 41.0 °F 86% 30.03 in 10.0 mi Calm Calm - N/A   Mostly Cloudy